Location: Unspecified
(49.2170°N, 0.0000°E)
Time: 06:14:16
(UTC+00:00)

S-56A Canister/Altair - Pass Details

Date: 25 January 2021
Orbit: 631 x 2501 km, 38.9° (Epoch: 02 March)

Event Time Altitude Azimuth Distance (km) Brightness Sun altitude
Exits shadow 06:37:18 - 248° (WSW) 2,511 9.7 -10.3°
Reaches altitude 10° 06:38:32 10° 237° (WSW) 2,229 9.5 -10.1°
Maximum altitude 06:41:42 17° 198° (SSW) 2,002 9.7 -9.6°
Drops below altitude 10° 06:45:25 10° 160° (SSE) 2,700 10.9 -9.0°
Sets 06:49:33 0° 142° (SE) 4,005 12.3 -8.3°
